Time,TemperatureF,DewpointF,PressureIn,WindDirection,WindDirectionDegrees,WindSpeedMPH,WindSpeedGustMPH,Humidity,HourlyPrecipIn,Conditions,Clouds,dailyrainin,SolarRadiationWatts/m^2,SoftwareType,DateUTC
2013-10-14 00:01:00,49.0,44.0,-100.00,ENE,67,0.0,7.0,84,0.00,,,0.00,0.000000,,2013-10-14 04:01:00,
2013-10-14 00:44:00,49.0,44.0,-100.00,ENE,67,0.0,7.0,84,0.00,,,0.00,0.000000,,2013-10-14 04:44:00,
2013-10-14 00:54:00,49.0,44.0,-100.00,ENE,67,0.0,7.0,84,0.00,,,0.00,0.000000,,2013-10-14 04:54:00,
2013-10-14 01:01:00,48.0,44.0,-100.00,East,83,1.0,5.0,85,0.00,,,0.00,0.000000,,2013-10-14 05:01:00,
2013-10-14 01:43:00,48.0,44.0,-100.00,East,83,1.0,5.0,85,0.00,,,0.00,0.000000,,2013-10-14 05:43:00,
2013-10-14 01:52:00,48.0,44.0,-100.00,East,83,1.0,5.0,85,0.00,,,0.00,0.000000,,2013-10-14 05:52:00,
2013-10-14 02:01:00,47.0,44.0,-100.00,ENE,66,0.0,4.0,88,0.00,,,0.00,0.000000,,2013-10-14 06:01:00,
2013-10-14 02:42:00,47.0,44.0,-100.00,ENE,66,0.0,4.0,88,0.00,,,0.00,0.000000,,2013-10-14 06:42:00,
2013-10-14 02:52:00,47.0,44.0,-100.00,ENE,66,0.0,4.0,88,0.00,,,0.00,0.000000,,2013-10-14 06:52:00,
2013-10-14 03:01:00,45.0,43.0,-100.00,NNE,18,0.0,5.0,91,0.00,,,0.00,0.000000,,2013-10-14 07:01:00,
2013-10-14 03:42:00,45.0,43.0,-100.00,NNE,18,0.0,5.0,91,0.00,,,0.00,0.000000,,2013-10-14 07:42:00,
2013-10-14 03:52:00,45.0,43.0,-100.00,NNE,18,0.0,5.0,91,0.00,,,0.00,0.000000,,2013-10-14 07:52:00,
2013-10-14 04:01:00,43.0,41.0,-100.00,NNE,17,0.0,2.0,93,0.00,,,0.00,0.000000,,2013-10-14 08:01:00,
2013-10-14 04:42:00,43.0,41.0,-100.00,NNE,17,0.0,2.0,93,0.00,,,0.00,0.000000,,2013-10-14 08:42:00,
2013-10-14 04:52:00,43.0,41.0,-100.00,NNE,17,0.0,2.0,93,0.00,,,0.00,0.000000,,2013-10-14 08:52:00,
2013-10-14 05:01:00,43.0,42.0,-100.00,NNE,13,0.0,1.0,95,0.00,,,0.00,0.000000,,2013-10-14 09:01:00,
2013-10-14 05:43:00,43.0,42.0,-100.00,NNE,13,0.0,1.0,95,0.00,,,0.00,0.000000,,2013-10-14 09:43:00,
2013-10-14 05:53:00,43.0,42.0,-100.00,NNE,13,0.0,1.0,95,0.00,,,0.00,0.000000,,2013-10-14 09:53:00,
2013-10-14 06:01:00,43.0,42.0,-100.00,NNE,30,0.0,2.0,95,0.00,,,0.00,0.000000,,2013-10-14 10:01:00,
2013-10-14 06:42:00,43.0,42.0,-100.00,NNE,30,0.0,2.0,95,0.00,,,0.00,0.000000,,2013-10-14 10:42:00,
2013-10-14 06:53:00,43.0,42.0,-100.00,NNE,30,0.0,2.0,95,0.00,,,0.00,0.000000,,2013-10-14 10:53:00,
2013-10-14 07:01:00,42.0,41.0,-100.00,ENE,60,0.0,1.0,96,0.00,,,0.00,0.000000,,2013-10-14 11:01:00,
2013-10-14 07:42:00,42.0,41.0,-100.00,ENE,60,0.0,1.0,96,0.00,,,0.00,0.000000,,2013-10-14 11:42:00,
2013-10-14 07:52:00,42.0,41.0,-100.00,ENE,60,0.0,1.0,96,0.00,,,0.00,0.000000,,2013-10-14 11:52:00,
2013-10-14 08:01:00,49.0,48.0,-100.00,NE,42,0.0,2.0,95,0.00,,,0.00,37.000000,,2013-10-14 12:01:00,
2013-10-14 08:42:00,49.0,48.0,-100.00,NE,42,0.0,2.0,95,0.00,,,0.00,37.000000,,2013-10-14 12:42:00,
2013-10-14 08:52:00,49.0,48.0,-100.00,NE,42,0.0,2.0,95,0.00,,,0.00,37.000000,,2013-10-14 12:52:00,
2013-10-14 09:01:00,58.0,51.0,-100.00,ENE,59,1.0,5.0,77,0.00,,,0.00,136.000000,,2013-10-14 13:01:00,
2013-10-14 09:42:00,58.0,51.0,-100.00,ENE,59,1.0,5.0,77,0.00,,,0.00,136.000000,,2013-10-14 13:42:00,
2013-10-14 09:52:00,58.0,51.0,-100.00,ENE,59,1.0,5.0,77,0.00,,,0.00,136.000000,,2013-10-14 13:52:00,
2013-10-14 10:01:00,60.0,49.0,-100.00,East,85,2.0,7.0,68,0.00,,,0.00,194.000000,,2013-10-14 14:01:00,
2013-10-14 10:22:00,60.0,49.0,-100.00,East,85,2.0,7.0,68,0.00,,,0.00,194.000000,,2013-10-14 14:22:00,
2013-10-14 10:32:00,60.0,49.0,-100.00,East,85,2.0,7.0,68,0.00,,,0.00,194.000000,,2013-10-14 14:32:00,
2013-10-14 10:42:00,60.0,49.0,-100.00,East,85,2.0,7.0,68,0.00,,,0.00,194.000000,,2013-10-14 14:42:00,
2013-10-14 10:52:00,60.0,49.0,-100.00,East,85,2.0,7.0,68,0.00,,,0.00,194.000000,,2013-10-14 14:52:00,
2013-10-14 11:01:00,62.0,48.0,-100.00,SE,138,2.0,8.0,60,0.00,,,0.00,225.000000,,2013-10-14 15:01:00,
2013-10-14 11:22:00,62.0,48.0,-100.00,SE,138,2.0,8.0,60,0.00,,,0.00,225.000000,,2013-10-14 15:22:00,
2013-10-14 11:33:00,62.0,48.0,-100.00,SE,138,2.0,8.0,60,0.00,,,0.00,225.000000,,2013-10-14 15:33:00,
2013-10-14 11:44:00,62.0,48.0,-100.00,SE,138,2.0,8.0,60,0.00,,,0.00,225.000000,,2013-10-14 15:44:00,
2013-10-14 11:54:00,62.0,48.0,-100.00,SE,138,2.0,8.0,60,0.00,,,0.00,225.000000,,2013-10-14 15:54:00,
2013-10-14 12:01:00,63.0,47.0,-100.00,SE,134,2.0,8.0,55,0.00,,,0.00,265.000000,,2013-10-14 16:01:00,
2013-10-14 12:43:00,63.0,47.0,-100.00,SE,134,2.0,8.0,55,0.00,,,0.00,265.000000,,2013-10-14 16:43:00,
2013-10-14 12:53:00,63.0,47.0,-100.00,SE,134,2.0,8.0,55,0.00,,,0.00,265.000000,,2013-10-14 16:53:00,
2013-10-14 13:01:00,65.0,48.0,-100.00,ENE,78,2.0,7.0,55,0.00,,,0.00,252.000000,,2013-10-14 17:01:00,
2013-10-14 13:42:00,65.0,48.0,-100.00,ENE,78,2.0,7.0,55,0.00,,,0.00,252.000000,,2013-10-14 17:42:00,
2013-10-14 13:52:00,65.0,48.0,-100.00,ENE,78,2.0,7.0,55,0.00,,,0.00,252.000000,,2013-10-14 17:52:00,
2013-10-14 14:01:00,64.0,47.0,-100.00,NNE,33,1.0,7.0,55,0.00,,,0.00,202.000000,,2013-10-14 18:01:00,
2013-10-14 14:43:00,64.0,47.0,-100.00,NNE,33,1.0,7.0,55,0.00,,,0.00,202.000000,,2013-10-14 18:43:00,
2013-10-14 14:52:00,64.0,47.0,-100.00,NNE,33,1.0,7.0,55,0.00,,,0.00,202.000000,,2013-10-14 18:52:00,
2013-10-14 15:01:00,62.0,47.0,-100.00,East,92,2.0,6.0,57,0.00,,,0.00,116.000000,,2013-10-14 19:01:00,
2013-10-14 15:42:00,62.0,47.0,-100.00,East,92,2.0,6.0,57,0.00,,,0.00,116.000000,,2013-10-14 19:42:00,
2013-10-14 15:52:00,62.0,47.0,-100.00,East,92,2.0,6.0,57,0.00,,,0.00,116.000000,,2013-10-14 19:52:00,
2013-10-14 16:01:00,62.0,49.0,-100.00,SE,137,2.0,8.0,62,0.00,,,0.00,163.000000,,2013-10-14 20:01:00,
2013-10-14 16:22:00,62.0,49.0,-100.00,SE,137,2.0,8.0,62,0.00,,,0.00,163.000000,,2013-10-14 20:22:00,
2013-10-14 16:32:00,62.0,49.0,-100.00,SE,137,2.0,8.0,62,0.00,,,0.00,163.000000,,2013-10-14 20:32:00,
2013-10-14 16:43:00,62.0,49.0,-100.00,SE,137,2.0,8.0,62,0.00,,,0.00,163.000000,,2013-10-14 20:43:00,
2013-10-14 16:52:00,62.0,49.0,-100.00,SE,137,2.0,8.0,62,0.00,,,0.00,163.000000,,2013-10-14 20:52:00,
2013-10-14 17:01:00,59.0,49.0,-100.00,SE,143,2.0,7.0,70,0.00,,,0.00,49.000000,,2013-10-14 21:01:00,
2013-10-14 17:44:00,59.0,49.0,-100.00,SE,143,2.0,7.0,70,0.00,,,0.00,49.000000,,2013-10-14 21:44:00,
2013-10-14 17:55:00,59.0,49.0,-100.00,SE,143,2.0,7.0,70,0.00,,,0.00,49.000000,,2013-10-14 21:55:00,
2013-10-14 18:01:00,56.0,48.0,-100.00,SE,139,1.0,7.0,74,0.00,,,0.00,18.000000,,2013-10-14 22:01:00,
2013-10-14 18:44:00,56.0,48.0,-100.00,SE,139,1.0,7.0,74,0.00,,,0.00,18.000000,,2013-10-14 22:44:00,
2013-10-14 18:54:00,56.0,48.0,-100.00,SE,139,1.0,7.0,74,0.00,,,0.00,18.000000,,2013-10-14 22:54:00,
2013-10-14 19:01:00,51.0,47.0,-100.00,SSW,202,0.0,3.0,85,0.00,,,0.00,2.000000,,2013-10-14 23:01:00,
2013-10-14 19:42:00,51.0,47.0,-100.00,SSW,202,0.0,3.0,85,0.00,,,0.00,2.000000,,2013-10-14 23:42:00,
2013-10-14 19:53:00,51.0,47.0,-100.00,SSW,202,0.0,3.0,85,0.00,,,0.00,2.000000,,2013-10-14 23:53:00,
2013-10-14 20:01:00,48.0,45.0,-100.00,SSW,202,0.0,0.0,90,0.00,,,0.00,0.000000,,2013-10-15 00:01:00,
2013-10-14 20:22:00,48.0,45.0,-100.00,SSW,202,0.0,0.0,90,0.00,,,0.00,0.000000,,2013-10-15 00:22:00,
2013-10-14 20:32:00,48.0,45.0,-100.00,SSW,202,0.0,0.0,90,0.00,,,0.00,0.000000,,2013-10-15 00:32:00,
2013-10-14 20:43:00,48.0,45.0,-100.00,SSW,202,0.0,0.0,90,0.00,,,0.00,0.000000,,2013-10-15 00:43:00,
2013-10-14 20:52:00,48.0,45.0,-100.00,SSW,202,0.0,0.0,90,0.00,,,0.00,0.000000,,2013-10-15 00:52:00,
2013-10-14 21:01:00,46.0,44.0,-100.00,SSW,202,0.0,0.0,92,0.00,,,0.00,0.000000,,2013-10-15 01:01:00,
2013-10-14 21:42:00,46.0,44.0,-100.00,SSW,202,0.0,0.0,92,0.00,,,0.00,0.000000,,2013-10-15 01:42:00,
2013-10-14 21:52:00,46.0,44.0,-100.00,SSW,202,0.0,0.0,92,0.00,,,0.00,0.000000,,2013-10-15 01:52:00,
2013-10-14 22:01:00,45.0,43.0,-100.00,NNW,334,0.0,1.0,94,0.00,,,0.00,0.000000,,2013-10-15 02:01:00,
2013-10-14 22:42:00,45.0,43.0,-100.00,NNW,334,0.0,1.0,94,0.00,,,0.00,0.000000,,2013-10-15 02:42:00,
2013-10-14 22:52:00,45.0,43.0,-100.00,NNW,334,0.0,1.0,94,0.00,,,0.00,0.000000,,2013-10-15 02:52:00,
2013-10-14 23:01:00,45.0,43.0,-100.00,ENE,65,0.0,3.0,94,0.00,,,0.00,0.000000,,2013-10-15 03:01:00,
2013-10-14 23:44:00,45.0,43.0,-100.00,ENE,65,0.0,3.0,94,0.00,,,0.00,0.000000,,2013-10-15 03:44:00,
2013-10-14 23:55:00,45.0,43.0,-100.00,ENE,65,0.0,3.0,94,0.00,,,0.00,0.000000,,2013-10-15 03:55:00,